FW6433 Weather Reports


time (UTC)temp
F
wind
direction
speed
knots
gust
knots
rain 1hr
in
rain 24hr
in
rain mn
in
humidity
%
barometer
mb
20260505093302 56 175 0.0 0.0 0.00 0.00 0.00 80 1014.4
20260505092802 56 178 0.0 0.0 0.00 0.00 0.00 80 1014.4
20260505092259 56 189 0.0 0.0 0.00 0.00 0.00 80 1014.2
20260505092031 56 189 0.0 0.9 0.00 0.00 0.00 80 1014.2
20260505091300 56 191 0.0 0.9 0.00 0.00 0.00 80 1014.2
20260505090800 55 199 0.0 0.0 0.00 0.00 0.00 81 1014.2
20260505090259 55 121 0.0 1.7 0.00 0.00 0.00 81 1014.4
20260505085759 55 207 0.0 2.6 0.00 0.00 0.00 81 1014.2
20260505085540 55 202 0.0 2.6 0.00 0.00 0.00 82 1014.2
20260505084800 55 189 0.0 0.0 0.00 0.00 0.00 83 1014.2
20260505084743 54 156 0.0 0.0 0.00 0.00 0.00 83 1014.1
20260505083530 54 198 0.0 0.0 0.00 0.00 0.00 84 1014.0
20260505082800 54 60 0.0 0.0 0.00 0.00 0.00 83 1014.1
20260505082300 54 61 0.0 0.0 0.00 0.00 0.00 83 1014.0
20260505081801 55 39 0.0 0.0 0.00 0.00 0.00 82 1014.1
20260505081538 55 86 0.0 0.0 0.00 0.00 0.00 82 1014.0
20260505080800 55 212 0.0 0.0 0.00 0.00 0.00 82 1014.0
20260505080300 55 86 0.0 0.0 0.00 0.00 0.00 82 1013.9
20260505075759 55 46 0.0 0.0 0.00 0.00 0.00 82 1013.8
20260505075524 55 143 0.0 0.0 0.00 0.00 0.00 82 1014.1
20260505074747 55 146 0.0 0.0 0.00 0.00 0.00 81 1013.7
20260505074247 55 151 0.0 0.0 0.00 0.00 0.00 80 1013.8
20260505073747 56 163 0.0 0.0 0.00 0.00 0.00 79 1013.6
20260505073241 56 164 0.0 0.0 0.00 0.00 0.00 78 1013.7
20260505072738 56 212 0.0 0.0 0.00 0.00 0.00 78 1013.5
20260505072237 57 186 0.0 0.9 0.00 0.00 0.00 77 1013.5
20260505071959 57 193 0.0 3.5 0.00 0.00 0.00 76 1013.6
20260505071237 57 221 0.0 3.5 0.00 0.00 0.00 76 1013.5
20260505070748 57 203 0.0 2.6 0.00 0.00 0.00 77 1013.5
20260505070539 57 154 0.0 2.6 0.00 0.00 0.00 77 1013.5
20260505065735 57 182 0.0 1.7 0.00 0.00 0.00 77 1013.3
20260505065235 57 186 0.0 0.0 0.00 0.00 0.00 77 1013.3
20260505064733 57 152 0.0 0.9 0.00 0.00 0.00 76 1013.3
20260505064234 58 199 0.0 2.6 0.00 0.00 0.00 75 1013.3
20260505063734 58 206 0.9 2.6 0.00 0.00 0.00 74 1013.2
20260505063236 58 231 0.0 0.9 0.00 0.00 0.00 75 1013.1
20260505063003 58 187 0.0 0.0 0.00 0.00 0.00 76 1013.1
20260505062502 58 153 0.0 0.0 0.00 0.00 0.00 76 1013.0
20260505061733 58 97 0.0 0.9 0.00 0.00 0.00 75 1012.9
20260505061233 58 107 0.0 0.9 0.00 0.00 0.00 75 1013.1
20260505060730 58 196 0.0 0.0 0.00 0.00 0.00 74 1012.8
20260505060229 59 155 0.0 0.0 0.00 0.00 0.00 74 1012.7
20260505055719 59 82 0.0 0.0 0.00 0.00 0.00 73 1012.5
20260505055217 59 131 0.0 1.7 0.00 0.00 0.00 72 1012.6
20260505054716 59 193 0.0 3.5 0.00 0.00 0.00 72 1012.4
20260505054210 60 145 0.0 3.5 0.00 0.00 0.00 71 1012.5
20260505053931 60 181 0.0 1.7 0.00 0.00 0.00 71 1012.6
20260505053202 60 202 0.0 0.9 0.00 0.00 0.00 70 1012.4
20260505052703 60 182 0.9 0.9 0.00 0.00 0.00 70 1012.5
20260505052151 61 188 0.0 1.7 0.00 0.00 0.00 69 1012.4
20260505051908 62 174 0.0 1.7 0.00 0.00 0.00 68 1012.4
20260505051420 62 228 0.0 1.7 0.00 0.00 0.00 67 1012.3
20260505050642 62 220 0.0 2.6 0.00 0.00 0.00 68 1012.4
20260505050133 62 213 0.9 2.6 0.00 0.00 0.00 67 1012.2
20260505041626 64 253 0.9 7.8 0.00 0.00 0.00 61 1011.5
20260505041126 65 224 3.5 7.8 0.00 0.00 0.00 61 1011.5
20260505040626 65 250 3.5 7.0 0.00 0.00 0.00 60 1011.4
20260505040127 66 234 4.3 7.0 0.00 0.00 0.00 59 1011.1
20260505035626 66 222 3.5 7.0 0.00 0.00 0.00 58 1011.1
20260505035126 67 218 3.5 7.0 0.00 0.00 0.00 58 1011.2
20260505034853 67 224 1.7 7.8 0.00 0.00 0.00 58 1011.2
20260505034126 67 222 4.3 7.8 0.00 0.00 0.00 57 1011.1
20260505033850 68 219 2.6 6.1 0.00 0.00 0.00 56 1010.9
20260505033357 68 229 2.6 5.2 0.00 0.00 0.00 56 1010.8
20260505032626 69 203 1.7 5.2 0.00 0.00 0.00 55 1010.8
20260505032125 69 179 0.9 7.8 0.00 0.00 0.00 54 1011.1
20260505031627 69 233 2.6 7.8 0.00 0.00 0.00 54 1010.6
20260505031125 70 210 0.9 7.8 0.00 0.00 0.00 52 1010.4
20260505030626 70 129 1.7 7.8 0.00 0.00 0.00 52 1010.5
20260505030350 71 229 1.7 7.8 0.00 0.00 0.00 51 1010.2
20260505025842 72 233 1.7 7.0 0.00 0.00 0.00 50 1010.3
20260505025106 72 223 2.6 6.1 0.00 0.00 0.00 49 1010.4
20260505024557 73 217 1.7 6.1 0.00 0.00 0.00 48 1010.1
20260505024057 73 216 2.6 7.8 0.00 0.00 0.00 48 1010.2
20260505023557 73 254 3.5 7.8 0.00 0.00 0.00 47 1010.1
20260505023057 74 256 0.9 7.0 0.00 0.00 0.00 46 1010.1
20260505022824 76 211 3.5 7.0 0.00 0.00 0.00 45 1010.0
20260505022056 76 280 3.5 6.1 0.00 0.00 0.00 44 1010.0
20260505021822 77 291 1.7 7.0 0.00 0.00 0.00 43 1010.0
20260505021056 76 323 0.0 7.0 0.00 0.00 0.00 44 1010.0
20260505020555 76 265 1.7 7.0 0.00 0.00 0.00 44 1009.9
20260505020056 77 270 5.2 7.8 0.00 0.00 0.00 43 1010.0
20260505015554 77 279 4.3 7.8 0.00 0.00 0.00 43 1009.9
20260505015054 78 295 4.3 7.8 0.00 0.00 0.00 43 1009.8
20260505014606 80 260 2.6 5.2 0.00 0.00 0.00 41 1009.6
20260505014600 79 218 3.5 7.0 0.00 0.00 0.00 42 1009.8
20260505013555 80 225 0.9 3.5 0.00 0.00 0.00 41 1010.0
20260505013333 79 248 0.0 5.2 0.00 0.00 0.00 42 1009.8
20260505012544 80 288 0.0 5.2 0.00 0.00 0.00 41 1009.9
20260505012043 80 309 2.6 6.1 0.00 0.00 0.00 40 1009.7
20260505011545 79 233 0.9 7.0 0.00 0.00 0.00 41 1009.8
20260505011035 80 311 5.2 7.0 0.00 0.00 0.00 40 1009.6
20260505010533 80 322 2.6 7.0 0.00 0.00 0.00 40 1010.0
20260505010031 80 349 2.6 7.0 0.00 0.00 0.00 40 1009.8
20260505005757 80 229 3.5 7.8 0.00 0.00 0.00 40 1009.8
20260505005247 80 289 0.9 7.8 0.00 0.00 0.00 40 1009.9
20260505004521 80 280 3.5 6.1 0.00 0.00 0.00 39 1009.9
20260505004019 81 336 2.6 7.8 0.00 0.00 0.00 38 1009.6
20260505003520 80 266 0.9 7.8 0.00 0.00 0.00 39 1009.8
20260505003019 80 280 3.5 7.8 0.00 0.00 0.00 39 1009.8
20260505002519 81 274 3.5 5.2 0.00 0.00 0.00 39 1009.8
20260505002245 80 331 2.6 7.0 0.00 0.00 0.00 38 1009.9
20260505001518 81 344 1.7 7.0 0.00 0.00 0.00 39 1009.8
20260505001246 81 258 2.6 5.2 0.00 0.00 0.00 38 1009.8
20260505000740 82 250 1.7 7.0 0.00 0.00 0.00 37 1009.8
20260505000018 82 176 0.0 7.0 0.00 0.00 0.00 36 1009.8
20260504235517 82 229 2.6 7.0 0.00 0.00 0.00 34 1009.9
20260504235019 81 216 2.6 6.1 0.00 0.00 0.00 35 1010.0
20260504234516 81 250 0.0 6.1 0.00 0.00 0.00 37 1009.7
20260504234016 80 298 2.6 6.1 0.00 0.00 0.00 37 1009.6
20260504233736 81 10 0.9 6.1 0.00 0.00 0.00 37 1009.8
20260504233016 80 316 2.6 6.1 0.00 0.00 0.00 37 1009.8
20260504232517 81 315 2.6 6.1 0.00 0.00 0.00 36 1009.9
20260504232243 81 245 1.7 6.1 0.00 0.00 0.00 36 1009.9
20260504231515 81 263 2.6 7.0 0.00 0.00 0.00 37 1009.7
20260504231012 81 301 3.5 7.0 0.00 0.00 0.00 37 1009.8
20260504230511 81 234 3.5 7.8 0.00 0.00 0.00 37 1010.1
20260504230010 81 103 0.0 7.8 0.00 0.00 0.00 36 1010.3
20260504225512 81 228 3.5 7.8 0.00 0.00 0.00 36 1010.0
20260504225001 82 262 2.6 6.1 0.00 0.00 0.00 35 1010.1
20260504224513 82 243 0.9 6.1 0.00 0.00 0.00 35 1010.5
20260504224230 82 244 2.6 7.0 0.00 0.00 0.00 35 1010.3
20260504223500 82 266 0.9 7.0 0.00 0.00 0.00 36 1010.3
20260504223000 80 250 2.6 7.0 0.00 0.00 0.00 37 1010.5
20260504222501 80 296 1.7 7.0 0.00 0.00 0.00 38 1010.5
20260504222002 80 319 1.7 6.1 0.00 0.00 0.00 38 1010.4
20260504221501 81 283 1.7 7.8 0.00 0.00 0.00 37 1010.5
20260504221001 80 292 1.7 7.8 0.00 0.00 0.00 38 1010.6
20260504220500 80 28 2.6 6.1 0.00 0.00 0.00 38 1010.6
20260504220001 80 317 2.6 6.1 0.00 0.00 0.00 37 1010.5
20260504215501 80 238 1.7 6.1 0.00 0.00 0.00 38 1010.6
20260504215004 80 242 1.7 6.1 0.00 0.00 0.00 39 1010.7
20260504214727 79 337 3.5 6.1 0.00 0.00 0.00 39 1010.8
20260504214228 79 352 3.5 6.1 0.00 0.00 0.00 39 1010.9
20260504213722 79 252 2.6 7.0 0.00 0.00 0.00 39 1010.9
20260504213000 79 343 4.3 7.0 0.00 0.00 0.00 40 1011.1
20260504212501 79 330 3.5 7.0 0.00 0.00 0.00 40 1010.9
20260504211959 78 303 2.6 7.0 0.00 0.00 0.00 40 1010.9
20260504211500 79 293 3.5 7.0 0.00 0.00 0.00 41 1010.9
20260504210959 79 344 3.5 7.8 0.00 0.00 0.00 41 1010.8
20260504210500 79 341 3.5 8.7 0.00 0.00 0.00 40 1010.9
20260504205959 79 347 3.5 8.7 0.00 0.00 0.00 40 1010.9
20260504205503 79 329 1.7 7.0 0.00 0.00 0.00 40 1011.0
20260504205226 80 260 4.3 7.0 0.00 0.00 0.00 38 1010.9
20260504204459 79 327 3.5 6.1 0.00 0.00 0.00 40 1010.9
20260504203959 79 340 2.6 6.1 0.00 0.00 0.00 40 1010.9
20260504203459 79 76 3.5 6.1 0.00 0.00 0.00 40 1011.0
20260504202959 79 284 0.9 5.2 0.00 0.00 0.00 38 1011.1
20260504202457 79 277 3.5 5.2 0.00 0.00 0.00 39 1011.0
20260504201957 79 354 1.7 6.1 0.00 0.00 0.00 38 1010.8
20260504201718 78 248 0.9 6.1 0.00 0.00 0.00 40 1010.9
20260504200949 79 349 0.9 3.5 0.00 0.00 0.00 39 1011.0
20260504200659 79 357 0.9 3.5 0.00 0.00 0.00 38 1011.2
20260504195937 78 148 2.6 6.1 0.00 0.00 0.00 36 1011.1
20260504195435 78 214 3.5 6.1 0.00 0.00 0.00 34 1011.4
20260504195202 77 46 0.9 5.2 0.00 0.00 0.00 34 1011.2
20260504194436 78 290 1.7 3.5 0.00 0.00 0.00 34 1011.3
20260504194159 77 256 1.7 7.0 0.00 0.00 0.00 35 1011.4
20260504193436 77 122 0.0 7.0 0.00 0.00 0.00 37 1011.4
20260504192935 77 208 2.6 7.0 0.00 0.00 0.00 36 1011.2
20260504192915 78 186 0.9 7.0 0.00 0.00 0.00 38 1011.4
20260504192151 78 211 1.7 6.1 0.00 0.00 0.00 36 1011.3
20260504191421 77 275 4.3 7.0 0.00 0.00 0.00 37 1011.5
20260504191147 76 225 5.2 7.0 0.00 0.00 0.00 38 1011.5
20260504190422 77 232 5.2 6.1 0.00 0.00 0.00 38 1011.7
20260504190413 77 166 0.9 6.1 0.00 0.00 0.00 39 1011.4
20260504185410 77 199 0.9 6.1 0.00 0.00 0.00 40 1011.5
20260504184909 76 193 0.9 6.1 0.00 0.00 0.00 41 1011.5
20260504184359 77 213 4.3 5.2 0.00 0.00 0.00 42 1011.6
20260504183858 77 287 1.7 5.2 0.00 0.00 0.00 40 1011.6
20260504183358 77 124 1.7 5.2 0.00 0.00 0.00 42 1011.5
20260504182857 77 174 1.7 3.5 0.00 0.00 0.00 40 1011.8
20260504182355 77 181 0.9 5.2 0.00 0.00 0.00 41 1011.7
20260504181854 76 199 0.0 5.2 0.00 0.00 0.00 43 1011.8
20260504181351 76 192 2.6 2.6 0.00 0.00 0.00 41 1012.0
20260504180844 75 12 0.0 5.2 0.00 0.00 0.00 41 1011.9
20260504180606 76 213 1.7 5.2 0.00 0.00 0.00 42 1011.8
20260504180335 76 246 1.7 2.6 0.00 0.00 0.00 41 1011.6
20260504175340 74 265 0.0 3.5 0.00 0.00 0.00 44 1011.8
20260504174841 75 115 3.5 3.5 0.00 0.00 0.00 43 1011.9
20260504174553 75 237 0.0 3.5 0.00 0.00 0.00 43 1011.7
20260504174320 74 138 0.0 3.5 0.00 0.00 0.00 45 1011.8
20260504173330 73 156 0.9 2.6 0.00 0.00 0.00 48 1011.7
20260504173050 73 231 0.9 3.5 0.00 0.00 0.00 45 1011.8
20260504172329 73 162 3.5 3.5 0.00 0.00 0.00 46 1011.6
20260504171830 73 173 2.6 3.5 0.00 0.00 0.00 47 1012.0
20260504171328 72 224 0.0 3.5 0.00 0.00 0.00 47 1011.7
20260504171319 72 246 0.0 3.5 0.00 0.00 0.00 47 1011.8
20260504170329 71 101 0.9 2.6 0.00 0.00 0.00 49 1011.8
20260504160307 66 82 0.0 1.7 0.00 0.00 0.00 57 1011.7
20260504151028 58 157 0.0 0.9 0.00 0.00 0.00 75 1011.3
20260504150525 58 141 0.0 0.0 0.00 0.00 0.00 76 1011.6
20260504141300 51 172 0.0 0.0 0.00 0.00 0.00 89 1011.3
20260504140748 51 172 0.0 0.0 0.00 0.00 0.00 90 1011.2
20260504140238 51 185 0.0 0.0 0.00 0.00 0.00 90 1011.0
20260504130706 50 201 0.0 0.0 0.00 0.00 0.00 91 1010.6
20260504130207 50 201 0.0 0.0 0.00 0.00 0.00 91 1010.3
20260504120205 51 200 0.0 0.0 0.00 0.00 0.00 91 1010.2
20260504110641 52 214 0.0 0.0 0.00 0.00 0.00 90 1010.2
20260504110140 52 214 0.0 0.0 0.00 0.00 0.00 89 1010.2
20260504100115 53 215 0.0 0.0 0.00 0.00 0.00 87 1010.2